This is the latest recevied weather packets stored in our database for station/object KE2HEH. If no packets are shown the sender has not sent any weather packets the latest 10 day(s).
| Time | Temp. | Humidity | Pressure | Rain* | Wind** | Luminosity | Snow |
|---|---|---|---|---|---|---|---|
| 1777487735 | 12.78° C | 80% | 1015.6 hPa | 0 mm | - | 502 W/m² | - |
| 1777487433 | 12.78° C | 80% | 1016 hPa | 0 mm | - | 416 W/m² | - |
| 1777487130 | 12.78° C | 80% | 1015.6 hPa | 0 mm | - | 649 W/m² | - |
| 1777486826 | 12.22° C | 81% | 1015.8 hPa | 0 mm | - | 425 W/m² | - |
| 1777486524 | 12.78° C | 80% | 1015.5 hPa | 0 mm | - | 583 W/m² | - |
| 1777486221 | 12.78° C | 81% | 1015.5 hPa | 0 mm | - | 363 W/m² | - |
| 1777485919 | 12.22° C | 80% | 1015.5 hPa | 0 mm | - | 609 W/m² | - |
| 1777485615 | 12.22° C | 82% | 1015.8 hPa | 0 mm | - | 463 W/m² | - |
| 1777485309 | 12.22° C | 82% | 1015.9 hPa | 0 mm | - | 328 W/m² | - |
| 1777485006 | 11.67° C | 81% | 1016 hPa | 0 mm | - | 279 W/m² | - |
| 1777484704 | 12.22° C | 81% | 1016 hPa | 0 mm | - | 379 W/m² | - |
| 1777484400 | 12.22° C | 80% | 1016 hPa | 0 mm | - | 436 W/m² | - |
| 1777484095 | 12.78° C | 79% | 1016 hPa | 0 mm | - | 580 W/m² | - |
| 1777483792 | 12.78° C | 79% | 1015.8 hPa | 0 mm | - | 573 W/m² | - |
| 1777483490 | 13.33° C | 79% | 1016.1 hPa | 0 mm | - | 576 W/m² | - |
| 1777483184 | 12.78° C | 78% | 1016 hPa | 0 mm | - | 575 W/m² | - |
| 1777482881 | 13.33° C | 77% | 1016.2 hPa | 0 mm | - | 541 W/m² | - |
| 1777482577 | 12.22° C | 79% | 1016.2 hPa | 0 mm | - | 600 W/m² | - |
| 1777482274 | 12.78° C | 77% | 1016.3 hPa | 0 mm | - | 582 W/m² | - |
| 1777481971 | 13.89° C | 75% | 1016.1 hPa | 0 mm | - | 288 W/m² | - |
| 1777481669 | 13.89° C | 74% | 1016.2 hPa | 0 mm | - | 483 W/m² | - |
| 1777481366 | 13.89° C | 74% | 1016.5 hPa | 0 mm | - | 551 W/m² | - |
| 1777481062 | 13.89° C | 73% | 1016.4 hPa | 0 mm | - | 576 W/m² | - |
| 1777480759 | 13.89° C | 74% | 1016.4 hPa | 0 mm | - | 606 W/m² | - |
| 1777480456 | 14.44° C | 72% | 1016.3 hPa | 0 mm | - | 552 W/m² | - |
* Rain latest hour (hover to see other rain measurements)
** Current wind speed in m/s (hover to see current wind gust speed)